Tracking 18980 objects as of 23-Feb-2018
HD Live streaming from Space Station
objects crossing your sky now

GLOBALSTAR M042

Track GLOBALSTAR M042 now!
10-day predictions
GLOBALSTAR M042 is classified as:


NORAD ID: 25679
Int'l Code: 1999-019D
Perigee: 1,588.7 km
Apogee: 1,593.2 km
Inclination: 52.0 °
Period: 117.8 minutes
Semi major axis: 7961 km
RCS: 2.3601 m2 (large)
Launch date: April 15, 1999
Source: Globalstar (GLOB)
Launch site: TYURATAM MISSILE AND SPACE COMPLEX (TTMTR)
aabbcc
Your satellite tracking list
Your tracking list is empty




NASA's NSSDC Master Catalog

Two Line Element Set (TLE):
1 25679U 99019D   18053.94716914 -.00000103 +00000-0 -10306-3 0  9994
2 25679 052.0030 031.2136 0002848 206.1142 185.5299 12.22000675858718
Source of the keplerian elements: AFSPC